Norwegian Spirit — C6TQ6 — position and weather

sailwx.info

Track history (hours):
 
Tides and Currents Weather Stations Pressure Air Temp Water Temp Dewpoint Dewpoint Depression Visibility Wind Speed Wind Dir Waves Ship Positions

Norwegian Spirit

Operator: Norwegian Cruise Line

Last reported at 2014-Aug-29 04:33 UTC. Time now 2014-Aug-29 05:32 UTC.
Position N 40°54' E 028°55'.

Type: Ship. MMSI: 311746000.

Date/timePositionNaut miles runAvg speedWind from/ knotsBaromVisibWave heightAir tempDewpointWater temp
2014-Aug-29 04:33N 40°54' E 028°55'18717.0
2014-Aug-28 17:32N 39°12' E 025°29'2720.5
2014-Aug-28 16:12N 38°46' E 025°18'1320.3
2014-Aug-28 15:33N 38°34' E 025°14'2820.4
2014-Aug-28 14:12N 38°06' E 025°12'1319.9
2014-Aug-28 13:33N 37°53' E 025°14'2019.9
2014-Aug-28 12:33N 37°34' E 025°17'6 5.8
2014-Aug-28 11:32N 37°28' E 025°19'0 0.0
2014-Aug-28 10:31N 37°28' E 025°19'0 0.0
2014-Aug-28 09:31N 37°28' E 025°19'0 0.0
2014-Aug-28 08:33N 37°28' E 025°19'0 0.0
2014-Aug-28 07:33N 37°28' E 025°19'0 0.0
2014-Aug-28 06:33N 37°28' E 025°19'0 0.0
2014-Aug-28 05:32N 37°28' E 025°19'0 0.0
2014-Aug-28 04:32N 37°28' E 025°19'0 0.0
2014-Aug-28 03:33N 37°28' E 025°19'8 7.7
2014-Aug-28 02:33N 37°27' E 025°10'1817.5
2014-Aug-28 01:33N 37°16' E 024°52'1717.4
2014-Aug-28 00:33N 37°05' E 024°35'1818.0
2014-Aug-27 23:34N 36°55' E 024°16'2121.1
2014-Aug-27 22:33N 36°43' E 023°55'2121.0
2014-Aug-27 21:33N 36°32' E 023°33'49218.6
2014-Aug-26 19:10N 40°20' E 014°16'246 5.3
2014-Aug-24 20:18N 42°52' E 009°58'1114.6
2014-Aug-24 19:34N 43°02' E 010°02'1514.9
2014-Aug-24 18:33N 43°17' E 010°07'1514.8
2014-Aug-24 17:34N 43°31' E 010°13'4 4.0
2014-Aug-24 16:32N 43°33' E 010°18'0 0.0
2014-Aug-24 15:31N 43°33' E 010°18'0 0.0
2014-Aug-24 14:31N 43°33' E 010°18'0 0.0
2014-Aug-24 13:31N 43°33' E 010°18'0 0.0
2014-Aug-24 12:33N 43°33' E 010°18'0 0.0
2014-Aug-24 11:32N 43°33' E 010°18'0 0.0
2014-Aug-24 10:32N 43°33' E 010°18'0 0.0
2014-Aug-24 09:32N 43°33' E 010°18'0 0.0
2014-Aug-24 08:31N 43°33' E 010°18'0 0.0
2014-Aug-24 07:31N 43°33' E 010°18'0 0.0
2014-Aug-24 06:33N 43°33' E 010°18'0 0.3
2014-Aug-24 05:33N 43°33' E 010°17'8 7.8
2014-Aug-24 04:33N 43°28' E 010°10'1312.8
2014-Aug-24 03:33N 43°19' E 009°57'1414.1
2014-Aug-24 02:33N 43°17' E 009°38'1514.5
2014-Aug-24 01:33N 43°14' E 009°18'1514.6
2014-Aug-24 00:33N 43°11' E 008°58'1514.7
2014-Aug-23 23:33N 43°10' E 008°38'1514.6
2014-Aug-23 22:33N 43°08' E 008°19'1514.6
2014-Aug-23 21:33N 43°05' E 007°59'1514.8
2014-Aug-23 20:33N 43°03' E 007°39'1120.0
2014-Aug-23 20:00N 43°00' E 007°24'4 9.8 260 / 201015.0 23.0
2014-Aug-23 19:33N 43°01' E 007°18'82 5.1
2014-Aug-23 03:33N 42°45' E 005°29'1818.2
2014-Aug-23 02:33N 42°35' E 005°08'1818.2
2014-Aug-23 01:33N 42°25' E 004°47'2019.9
2014-Aug-23 00:33N 42°14' E 004°25'2121.2
2014-Aug-22 23:33N 42°03' E 004°00'2120.6
2014-Aug-22 22:33N 41°51' E 003°37'2020.4
2014-Aug-22 21:33N 41°40' E 003°14'4220.8
2014-Aug-22 19:33N 41°21' E 002°25'11 1.0
2014-Aug-22 08:16N 41°22' E 002°11'0 0.0
2014-Aug-22 06:33N 41°22' E 002°11'3 0.6
2014-Aug-22 02:09N 41°19' E 002°10'711.7
2014-Aug-22 01:33N 41°17' E 002°19'1818.2
2014-Aug-22 00:33N 41°26' E 002°40'1717.3
2014-Aug-21 23:33N 41°35' E 002°60'1919.3
2014-Aug-21 22:33N 41°45' E 003°22'2121.6
2014-Aug-21 21:33N 41°56' E 003°46'4221.2
2014-Aug-21 19:33N 42°20' E 004°34'1120.3
2014-Aug-21 19:00N 42°24' E 004°48'1023.5 250 / 161015.0 21.0
2014-Aug-21 18:33N 42°31' E 004°58'2120.8
2014-Aug-21 17:33N 42°43' E 005°21'2121.6
2014-Aug-21 16:33N 42°55' E 005°45'1312.5
2014-Aug-21 15:33N 43°06' E 005°55'1 1.0
2014-Aug-21 14:28N 43°06' E 005°54'0 0.0
2014-Aug-21 07:17N 43°06' E 005°54'0 0.1
2014-Aug-21 06:33N 43°06' E 005°54'9 8.7
2014-Aug-21 05:34N 43°01' E 006°03'1413.6
2014-Aug-21 04:34N 42°57' E 006°21'1515.2
2014-Aug-21 03:34N 42°59' E 006°42'1716.7
2014-Aug-21 02:34N 43°01' E 007°04'1616.2
2014-Aug-21 01:34N 43°03' E 007°26'1716.6
2014-Aug-21 00:34N 43°06' E 007°49'814.4
2014-Aug-21 00:00N 43°06' E 008°00'920.2 260 / 161013.0 1.023.020.025.0
2014-Aug-20 23:34N 43°08' E 008°12'1816.6
2014-Aug-20 22:30N 43°11' E 008°35'1716.6
2014-Aug-20 21:30N 43°13' E 008°58'1616.7
2014-Aug-20 20:34N 43°15' E 009°19'1716.7
2014-Aug-20 19:34N 43°18' E 009°42'1616.3
2014-Aug-20 18:34N 43°23' E 010°03'1414.1
2014-Aug-20 17:33N 43°33' E 010°17'0 0.4
2014-Aug-20 16:33N 43°33' E 010°18'0 0.0
2014-Aug-20 15:32N 43°33' E 010°18'0 0.0
2014-Aug-20 14:32N 43°33' E 010°18'0 0.0
2014-Aug-20 13:31N 43°33' E 010°18'0 0.0
2014-Aug-20 12:31N 43°33' E 010°18'0 0.0
2014-Aug-20 11:31N 43°33' E 010°18'0 0.0
2014-Aug-20 10:33N 43°33' E 010°18'0 0.0
2014-Aug-20 09:30N 43°33' E 010°18'0 0.0
2014-Aug-20 08:32N 43°33' E 010°18'0 0.0
2014-Aug-20 07:32N 43°33' E 010°18'0 0.0
2014-Aug-20 06:31N 43°33' E 010°18'0 0.3
2014-Aug-20 05:33N 43°33' E 010°17'7 7.4
2014-Aug-20 04:33N 43°27' E 010°12'1413.9
2014-Aug-20 03:34N 43°14' E 010°06'1313.4
2014-Aug-20 02:34N 43°01' E 010°02'1414.0
2014-Aug-20 01:33N 42°47' E 009°59'  
Track history (hours):
 
Tides and Currents Weather Stations Pressure Air Temp Water Temp Dewpoint Dewpoint Depression Visibility Wind Speed Wind Dir Waves Ship Positions

Norwegian Spirit

Operator: Norwegian Cruise Line

Last reported at 2014-Aug-29 04:33 UTC. Time now 2014-Aug-29 05:32 UTC.
Position N 40°54' E 028°55'.

Type: Ship. MMSI: 311746000.

Date/timePositionNaut miles runAvg speedWind from/ knotsBaromVisibWave heightAir tempDewpointWater temp
2014-Aug-29 04:33N 40°54' E 028°55'18717.0
2014-Aug-28 17:32N 39°12' E 025°29'2720.5
2014-Aug-28 16:12N 38°46' E 025°18'1320.3
2014-Aug-28 15:33N 38°34' E 025°14'2820.4
2014-Aug-28 14:12N 38°06' E 025°12'1319.9
2014-Aug-28 13:33N 37°53' E 025°14'2019.9
2014-Aug-28 12:33N 37°34' E 025°17'6 5.8
2014-Aug-28 11:32N 37°28' E 025°19'0 0.0
2014-Aug-28 10:31N 37°28' E 025°19'0 0.0
2014-Aug-28 09:31N 37°28' E 025°19'0 0.0
2014-Aug-28 08:33N 37°28' E 025°19'0 0.0
2014-Aug-28 07:33N 37°28' E 025°19'0 0.0
2014-Aug-28 06:33N 37°28' E 025°19'0 0.0
2014-Aug-28 05:32N 37°28' E 025°19'0 0.0
2014-Aug-28 04:32N 37°28' E 025°19'0 0.0
2014-Aug-28 03:33N 37°28' E 025°19'8 7.7
2014-Aug-28 02:33N 37°27' E 025°10'1817.5
2014-Aug-28 01:33N 37°16' E 024°52'1717.4
2014-Aug-28 00:33N 37°05' E 024°35'1818.0
2014-Aug-27 23:34N 36°55' E 024°16'2121.1
2014-Aug-27 22:33N 36°43' E 023°55'2121.0
2014-Aug-27 21:33N 36°32' E 023°33'49218.6
2014-Aug-26 19:10N 40°20' E 014°16'246 5.3
2014-Aug-24 20:18N 42°52' E 009°58'1114.6
2014-Aug-24 19:34N 43°02' E 010°02'1514.9
2014-Aug-24 18:33N 43°17' E 010°07'1514.8
2014-Aug-24 17:34N 43°31' E 010°13'4 4.0
2014-Aug-24 16:32N 43°33' E 010°18'0 0.0
2014-Aug-24 15:31N 43°33' E 010°18'0 0.0
2014-Aug-24 14:31N 43°33' E 010°18'0 0.0
2014-Aug-24 13:31N 43°33' E 010°18'0 0.0
2014-Aug-24 12:33N 43°33' E 010°18'0 0.0
2014-Aug-24 11:32N 43°33' E 010°18'0 0.0
2014-Aug-24 10:32N 43°33' E 010°18'0 0.0
2014-Aug-24 09:32N 43°33' E 010°18'0 0.0
2014-Aug-24 08:31N 43°33' E 010°18'0 0.0
2014-Aug-24 07:31N 43°33' E 010°18'0 0.0
2014-Aug-24 06:33N 43°33' E 010°18'0 0.3
2014-Aug-24 05:33N 43°33' E 010°17'8 7.8
2014-Aug-24 04:33N 43°28' E 010°10'1312.8
2014-Aug-24 03:33N 43°19' E 009°57'1414.1
2014-Aug-24 02:33N 43°17' E 009°38'1514.5
2014-Aug-24 01:33N 43°14' E 009°18'1514.6
2014-Aug-24 00:33N 43°11' E 008°58'1514.7
2014-Aug-23 23:33N 43°10' E 008°38'1514.6
2014-Aug-23 22:33N 43°08' E 008°19'1514.6
2014-Aug-23 21:33N 43°05' E 007°59'1514.8
2014-Aug-23 20:33N 43°03' E 007°39'1120.0
2014-Aug-23 20:00N 43°00' E 007°24'4 9.8 260 / 201015.0 23.0
2014-Aug-23 19:33N 43°01' E 007°18'82 5.1
2014-Aug-23 03:33N 42°45' E 005°29'1818.2
2014-Aug-23 02:33N 42°35' E 005°08'1818.2
2014-Aug-23 01:33N 42°25' E 004°47'2019.9
2014-Aug-23 00:33N 42°14' E 004°25'2121.2
2014-Aug-22 23:33N 42°03' E 004°00'2120.6
2014-Aug-22 22:33N 41°51' E 003°37'2020.4
2014-Aug-22 21:33N 41°40' E 003°14'4220.8
2014-Aug-22 19:33N 41°21' E 002°25'11 1.0
2014-Aug-22 08:16N 41°22' E 002°11'0 0.0
2014-Aug-22 06:33N 41°22' E 002°11'3 0.6
2014-Aug-22 02:09N 41°19' E 002°10'711.7
2014-Aug-22 01:33N 41°17' E 002°19'1818.2
2014-Aug-22 00:33N 41°26' E 002°40'1717.3
2014-Aug-21 23:33N 41°35' E 002°60'1919.3
2014-Aug-21 22:33N 41°45' E 003°22'2121.6
2014-Aug-21 21:33N 41°56' E 003°46'4221.2
2014-Aug-21 19:33N 42°20' E 004°34'1120.3
2014-Aug-21 19:00N 42°24' E 004°48'1023.5 250 / 161015.0 21.0
2014-Aug-21 18:33N 42°31' E 004°58'2120.8
2014-Aug-21 17:33N 42°43' E 005°21'2121.6
2014-Aug-21 16:33N 42°55' E 005°45'1312.5
2014-Aug-21 15:33N 43°06' E 005°55'1 1.0
2014-Aug-21 14:28N 43°06' E 005°54'0 0.0
2014-Aug-21 07:17N 43°06' E 005°54'0 0.1
2014-Aug-21 06:33N 43°06' E 005°54'9 8.7
2014-Aug-21 05:34N 43°01' E 006°03'1413.6
2014-Aug-21 04:34N 42°57' E 006°21'1515.2
2014-Aug-21 03:34N 42°59' E 006°42'1716.7
2014-Aug-21 02:34N 43°01' E 007°04'1616.2
2014-Aug-21 01:34N 43°03' E 007°26'1716.6
2014-Aug-21 00:34N 43°06' E 007°49'814.4
2014-Aug-21 00:00N 43°06' E 008°00'920.2 260 / 161013.0 1.023.020.025.0
2014-Aug-20 23:34N 43°08' E 008°12'1816.6
2014-Aug-20 22:30N 43°11' E 008°35'1716.6
2014-Aug-20 21:30N 43°13' E 008°58'1616.7
2014-Aug-20 20:34N 43°15' E 009°19'1716.7
2014-Aug-20 19:34N 43°18' E 009°42'1616.3
2014-Aug-20 18:34N 43°23' E 010°03'1414.1
2014-Aug-20 17:33N 43°33' E 010°17'0 0.4
2014-Aug-20 16:33N 43°33' E 010°18'0 0.0
2014-Aug-20 15:32N 43°33' E 010°18'0 0.0
2014-Aug-20 14:32N 43°33' E 010°18'0 0.0
2014-Aug-20 13:31N 43°33' E 010°18'0 0.0
2014-Aug-20 12:31N 43°33' E 010°18'0 0.0
2014-Aug-20 11:31N 43°33' E 010°18'0 0.0
2014-Aug-20 10:33N 43°33' E 010°18'0 0.0
2014-Aug-20 09:30N 43°33' E 010°18'0 0.0
2014-Aug-20 08:32N 43°33' E 010°18'0 0.0
2014-Aug-20 07:32N 43°33' E 010°18'0 0.0
2014-Aug-20 06:31N 43°33' E 010°18'0 0.3
2014-Aug-20 05:33N 43°33' E 010°17'7 7.4
2014-Aug-20 04:33N 43°27' E 010°12'1413.9
2014-Aug-20 03:34N 43°14' E 010°06'1313.4
2014-Aug-20 02:34N 43°01' E 010°02'1414.0
2014-Aug-20 01:33N 42°47' E 009°59'  

Dump ship's entire track history